Location: Westerlo
(51.0830°N, 4.9170°E)
Time: 10:36:06
(UTC+02:00)

ISS - Pass Details

Date: 29 July 2019
Orbit: 410 x 420 km, 51.6° (Epoch: 19 August)

Event Time Altitude Azimuth Distance (km) Brightness Sun altitude
Rises 23:25:54 0° 285° (WNW) 2,373 0.9 -13.7°
Reaches altitude 10° 23:28:06 10° 277° (W) 1,504 -0.4 -13.9°
Maximum altitude 23:31:14 36° 209° (SSW) 677 -3.0 -14.2°
Enters shadow 23:32:18 28° 168° (SSE) 812 -2.9 -14.3°
